#timestamp,LO_Frequency,Hit,StdDev 
1585818015.8,286047002.4,N
1585818035.6,286047001.5,N
1585818055.4,286047002.4,N
1585818075.3,286047002.0,N
1585818095.1,286047002.8,N
1585818115.9,286047000.2,N
1585818135.7,286047000.2,N
1585818155.5,286047000.0,N
1585818175.4,286047002.4,N
1585818195.2,286047001.5,N
1585818215.1,286047003.9,Y
1585818216.0,286047003.9,P
1585818235.8,286047000.4,N
1585818255.7,286047001.4,N
1585818275.5,286047004.2,Y
1585818295.3,286047002.4,P
1585818315.2,286047002.8,P
1585818335.0,286047000.0,N
1585818335.9,286047000.0,N
1585818355.8,286047000.2,N
1585818375.6,286046999.8,N
1585818395.4,286047001.9,N
1585818415.3,286047002.6,N
1585818435.1,286047003.0,N
1585818455.9,286047003.4,N
1585818475.7,286047003.5,N
1585818495.5,286047005.2,Y
1585818515.4,286047000.1,P
1585818535.2,286047000.7,N
1585818555.1,286046999.8,N
1585818556.0,286046999.8,N
1585818575.8,286047000.0,N
1585818595.6,286047000.0,N
1585818615.5,286046998.2,N
1585818635.3,286046996.5,Y
1585818655.2,286046997.4,P
1585818675.9,286046999.6,N
1585818695.7,286046999.4,N
1585818715.6,286046998.9,N
1585818735.4,286047000.6,N
1585818755.2,286046999.3,N
1585818775.1,286047003.9,Y
1585818776.0,286047003.9,P
1585818795.8,286047006.0,N
1585818815.7,286047003.3,N
1585818835.5,286047003.8,N
1585818855.3,286047004.0,N
1585818875.2,286047001.5,N
1585818895.0,286047002.3,N
1585818895.9,286047002.3,N
1585818915.8,286047002.1,N
1585818935.6,286047004.1,N
1585818955.4,286047001.5,N
1585818975.3,286047003.3,N
1585818995.1,286047001.3,N
1585819015.9,286047003.7,N
1585819035.7,286047003.1,N
1585819055.5,286047004.5,N
1585819075.4,286047003.5,N
1585819095.2,286047001.3,N
1585819115.0,286047004.0,N
1585819115.9,286047004.0,N
1585819135.8,286047005.4,Y
1585819155.6,286047000.2,P
1585819175.5,286047000.2,N
1585819195.3,286047002.8,N
1585819215.1,286047004.0,N
1585819235.9,286047003.8,N
1585819255.7,286047002.5,N
1585819275.5,286047000.2,N
1585819295.4,286047002.1,N
1585819315.2,286047000.4,N
1585819335.1,286047000.9,N
1585819336.0,286047000.9,N
1585819355.8,286047000.4,N
1585819375.6,286046999.0,N
1585819395.5,286046997.8,N
1585819415.3,286046997.0,N
1585819435.2,286047001.2,N
1585819455.9,286046999.5,N
1585819475.7,286046998.4,N
1585819495.6,286047015.9,Y
1585819515.4,286047011.6,P
1585819535.3,286047006.2,N
1585819555.1,286047003.0,N
1585819556.0,286047003.0,N
1585819575.8,286047002.9,N
1585819595.7,286047002.6,N
1585819615.5,286047003.2,N
1585819635.4,286047002.9,N
1585819655.2,286047005.9,N
1585819675.0,286047003.6,N
1585819675.9,286047003.6,N
1585819695.8,286047001.9,N
1585819715.6,286047001.6,N
1585819735.5,286047005.9,N
1585819755.3,286047003.6,N
1585819775.1,286047003.9,N
1585819795.9,286047001.5,N
1585819815.7,286047001.1,N
1585819835.5,286047001.1,N
1585819855.4,286047000.5,N
1585819875.2,286047000.3,N
1585819895.1,286047002.2,N
1585819896.0,286047002.2,N
1585819915.8,286047001.8,N
1585819935.6,286047002.7,N
1585819955.5,286047000.1,N
1585819975.3,286047003.2,N
1585819995.2,286047005.6,N
1585820015.9,286047005.1,N
1585820035.7,286047003.0,N
1585820055.6,286047002.2,N
1585820075.4,286047003.9,N
1585820095.3,286047003.8,N
1585820115.1,286047003.9,N
1585820116.0,286047003.9,N
1585820135.8,286047003.8,N
1585820155.7,286047005.9,Y
1585820175.5,286046999.7,P
1585820195.4,286047000.4,N
1585820215.2,286046998.2,N
1585820235.0,286046998.2,N
1585820235.9,286046998.2,N
1585820255.8,286047000.8,N
1585820275.6,286046998.3,N
1585820295.4,286047000.7,N
1585820315.3,286047000.8,N
1585820335.1,286046998.9,N
1585820355.9,286046998.2,N
1585820375.7,286046996.6,N
1585820395.5,286046999.2,N
1585820415.4,286046999.2,N
1585820435.2,286046997.2,N
1585820455.0,286046997.3,N
1585820456.0,286046997.3,N
1585820475.8,286046995.2,Y
1585820495.6,286046996.6,P
1585820515.5,286046999.2,N
1585820535.3,286046997.2,N
1585820555.1,286046996.5,Y
1585820575.9,286046999.9,P
1585820595.7,286047005.9,P
1585820615.6,286047004.2,N
1585820635.4,286047004.2,N
1585820655.2,286047003.5,N
1585820675.1,286047004.2,N
1585820676.0,286047004.2,N
1585820695.8,286047002.6,N
1585820715.7,286047001.7,N
1585820735.5,286046999.8,N
1585820755.3,286047002.4,N
1585820775.2,286046999.8,N
1585820795.0,286047002.8,N
1585820795.9,286047002.8,N
1585820815.7,286047003.9,N
1585820835.6,286047005.6,N
1585820855.4,286047004.3,N
1585820875.3,286047007.2,Y
1585820895.1,286047002.6,P
1585820915.8,286047000.5,P
1585820935.7,286047000.9,N
1585820955.5,286046999.2,N
1585820975.4,286046998.8,N
1585820995.2,286046999.1,N
1585821015.0,286047001.2,N
1585821015.9,286047001.2,N
1585821035.8,286047000.0,N
1585821055.6,286046999.4,N
1585821075.4,286046998.9,N
1585821095.3,286046998.1,N
1585821115.1,286046999.0,N
1585821135.9,286046999.2,N
1585821155.7,286046996.5,N
1585821175.5,286046996.8,N
1585821195.4,286046999.3,N
1585821215.2,286046996.6,N
1585821235.0,286046997.4,N
1585821235.9,286046997.4,N
1585821255.8,286046998.8,N
1585821275.6,286046998.2,N
1585821295.5,286046999.1,N
1585821315.3,286046999.0,N
1585821335.1,286046999.6,N
1585821355.9,286046997.0,N
1585821375.7,286046999.6,N
1585821395.6,286047000.8,N
1585821415.4,286046997.2,N
1585821435.2,286046999.2,N
1585821455.1,286046998.5,N
1585821456.0,286046998.5,N
1585821475.8,286046999.6,N
1585821495.7,286046998.9,N
1585821515.5,286047000.8,N
1585821535.3,286047000.9,N
1585821555.2,286046999.0,N
1585821575.0,286046996.7,N
1585821575.9,286046996.7,N
1585821595.7,286046996.7,N
